[[{"header":{"parameterUnit":"m.s-1","parameterCategory":1,"la1":30.2991,"la2":30.254,"lo1":-89.0895,"lo2":-89.0444,"dy":0.0017,"dx":0.0017,"nx":28,"ny":28,"refTime":"2024-02-21T09:00:00:Z","depth":0,"parameterNumber":2,"parameterNumberName":"U-component_of_WINDS"},"data":[0,0,0,0,0,0,0,0,0,0,0,0,0,0,0,0,0,0,0,0,0,0,0,0,0,0,0,0,0,0,0,0,0,0,0,0,0,0,0,0,0,0,0,0,0,0,0,0,0,0,0,0,0,0,0,0,0,0,1.9411,1.941,0,1.9387,1.9387,1.9387,1.9318,1.9317,1.9315,1.9314,1.9294,1.9295,1.9296,0,0,0,0,0,0,0,0,0,0,0,0,0,1.94,1.94,1.9411,1.941,1.941,1.9388,1.9387,1.9387,1.9319,1.9317,1.9315,1.9313,1.9294,1.9295,1.9296,0,0,0,0,0,0,0,0,0,0,0,0,0,1.9394,1.9401,1.9411,1.9373,1.937,1.9388,1.9387,1.9387,1.9319,1.9317,1.9314,1.9312,1.9294,1.9295,1.9296,1.935,0,0,1.93,1.9301,0,0,0,0,0,0,0,0,1.9394,1.9394,1.9379,1.9376,1.9372,1.9353,1.9376,1.9375,1.932,1.9338,1.9314,1.9311,1.9316,1.9315,1.9316,1.9349,1.9348,1.9301,1.9301,1.9302,1.9302,0,0,0,0,0,0,0,1.9395,1.9395,1.9402,1.9379,1.9374,1.9359,1.9355,1.9376,1.934,1.9337,1.9331,1.9329,1.9314,1.9315,1.9315,1.9348,1.93,1.9302,1.9303,1.9303,1.9425,1.9427,0,0,0,0,0,0,1.94,1.9396,1.9402,1.9401,1.9377,1.9361,1.9357,1.9362,1.934,1.9334,1.9331,1.9326,1.9314,1.9314,1.9314,1.9376,1.9302,1.9303,1.9304,1.9423,1.9426,1.9428,0,0,0,0,0,0,1.94,1.9401,1.9403,1.9397,1.9396,1.9363,1.9369,1.9362,1.9364,1.9336,1.933,1.9339,1.9312,1.9312,1.9342,1.9375,1.9304,1.9305,1.942,1.9424,1.9427,1.9501,0,0,0,0,0,0,1.94,1.9401,1.942,1.9398,1.9396,1.943,1.9371,1.9364,1.9366,1.9359,1.9342,1.9337,1.931,1.934,1.9343,1.9375,1.9306,1.9417,1.9421,1.9426,1.9495,1.9507,1.9516,0,0,0,0,0,1.94,1.9443,1.9422,1.9423,1.9419,1.9432,1.9431,1.9399,1.9369,1.9388,1.9371,1.9337,1.9371,1.9344,1.9346,1.938,1.9414,1.942,1.9425,1.9491,1.9504,1.9516,0,0,0,0,0,0,1.9472,1.9439,1.9415,1.9452,1.9445,1.942,1.9444,1.9415,1.9417,1.9411,1.9372,1.9369,1.9404,1.9394,1.9365,1.9431,1.9387,1.9393,1.9436,1.9449,1.9459,1.9461,1.9307,0,0,0,0,0,1.9492,1.9503,1.9475,1.951,1.9508,1.9477,1.9481,1.9457,1.9448,1.9445,1.943,1.9424,1.9433,1.944,1.9447,1.9494,1.949,1.9518,1.9529,1.9537,1.9543,1.9568,1.9581,1.9446,1.9446,1.9446,0,0,1.9533,1.9517,1.9527,1.9524,1.9516,1.953,1.9475,1.9492,1.9502,1.9448,1.9475,1.9463,1.9455,1.9493,1.9509,1.9486,1.958,1.9544,1.9551,1.9553,1.9575,1.9588,1.96,1.945,1.9449,1.9449,0,0,1.9617,1.9605,1.9633,1.9626,1.9614,1.9593,1.96,1.958,1.957,1.9595,1.9555,1.9568,1.9585,1.958,1.958,1.9663,1.9633,1.9666,1.9721,1.9746,1.9757,1.9766,1.9796,1.9808,1.9673,1.9673,1.9673,0,1.967,1.9689,1.9652,1.9672,1.9673,1.9623,1.9653,1.9648,1.9639,1.9642,1.9616,1.9636,1.9627,1.9664,1.9684,1.9685,1.9693,1.9668,1.9758,1.9767,1.9775,1.9804,1.9815,1.9677,1.9676,1.9676,1.9676,0,1.9756,1.977,1.9794,1.9786,1.9789,1.9814,1.9783,1.9791,1.9767,1.9749,1.9777,1.9764,1.9768,1.9775,1.9752,1.9809,1.9795,1.9764,1.972,1.9793,1.9819,1.983,1.9683,1.9681,1.968,1.9679,0,0,1.9884,1.9855,1.9865,1.9861,1.9844,1.9854,1.9878,1.988,1.9888,1.9885,1.9904,1.9919,1.9891,1.9891,1.9867,1.9889,1.9957,1.9855,1.9855,1.9875,2.002,2.0044,2.0057,1.9936,1.9938,1.994,2.0021,0,1.9963,1.9999,1.9967,2.0011,2.0023,1.9977,1.9998,1.9991,1.9975,1.9985,1.9968,1.998,1.9941,1.9941,1.996,1.9944,1.9985,1.9938,1.9955,1.9956,1.9959,2.0071,2.0096,2.0173,2.0031,2.0033,2.0034,0,2.006,2.0059,2.0104,2.0085,2.0089,2.0108,2.0108,2.0117,2.0109,2.0096,2.0097,2.0068,2.0091,2.0046,2.0079,2.0047,2.0052,2.0046,2.0048,2.0049,2.0,2.0076,2.0197,2.0209,2.005,2.0049,2.0047,0,2.0149,2.016,2.0188,2.0186,2.0164,2.0179,2.0171,2.016,2.0164,2.0165,2.0167,2.0172,2.0174,2.0179,2.0152,2.0122,2.0188,2.0141,2.018,2.018,2.0196,2.0195,2.0321,2.0199,2.0198,2.0198,2.0198,0,2.0241,2.027,2.0228,2.0245,2.0277,2.0241,2.0274,2.0261,2.0252,2.0268,2.0228,2.0244,2.0207,2.0219,2.0199,2.0229,2.0231,2.0222,2.0216,2.0226,2.0227,2.0229,2.0223,2.0201,2.0201,2.02,2.0199,0,2.0347,2.0319,2.0346,2.0324,2.0319,2.0344,2.0325,2.0341,2.0323,2.0343,2.0346,2.0318,2.0331,2.0304,2.0313,2.0299,2.0343,2.0328,2.0345,2.0341,2.0381,2.0378,2.0513,2.0529,2.0396,2.0398,2.0399,0,2.0407,2.0428,2.0408,2.0415,2.0409,2.042,2.0424,2.039,2.0396,2.0388,2.0406,2.0415,2.042,2.0442,2.0424,2.0431,2.0417,2.0464,2.0418,2.0427,2.0419,2.0418,2.0421,2.0474,2.0475,2.0477,2.0478,0,2.0518,2.0503,2.0509,2.0511,2.0517,2.0517,2.0514,2.0523,2.0487,2.0496,2.0507,2.0511,2.052,2.053,2.0533,2.0527,2.0497,2.0492,2.0502,2.0512,2.0521,2.0518,2.0372,2.0489,2.0488,2.0487,2.0487,2.0486,2.0603,2.062,2.0608,2.0617,2.0611,2.061,2.0624,2.0608,2.0617,2.0621,2.0601,2.0617,2.061,2.0611,2.0607,2.0621,2.06,2.0613,2.0617,2.0621,2.0628,2.0519,2.0621,2.0621,2.062,2.062,2.062,0,2.0712,2.0702,2.071,2.0708,2.0715,2.0685,2.0682,2.069,2.0705,2.07,2.0706,2.072,2.073,2.0713,2.072,2.0734,2.0721,2.0738,2.0736,2.0736,2.0645,2.0637,2.0748,2.0748,2.0748,2.0748,2.0748,2.0748,2.0769,2.0797,2.0781,2.0807,2.0797,2.0812,2.0813,2.0812,2.0808,2.0825,2.0833,2.0821,2.0812,2.0818,2.0827,2.0821,2.0826,2.0848,2.0838,2.0754,2.0742,2.073,2.0722,2.0849,2.0849,2.0927,2.0928,2.0929]},{"header":{"parameterUnit":"m.s-1","parameterCategory":1,"la1":30.2991,"la2":30.254,"lo1":-89.0895,"lo2":-89.0444,"dy":0.0017,"dx":0.0017,"nx":28,"ny":28,"refTime":"2024-02-21T09:00:00:Z","depth":0,"parameterNumber":3,"parameterNumberName":"V-component_of_WINDS"},"data":[0,0,0,0,0,0,0,0,0,0,0,0,0,0,0,0,0,0,0,0,0,0,0,0,0,0,0,0,0,0,0,0,0,0,0,0,0,0,0,0,0,0,0,0,0,0,0,0,0,0,0,0,0,0,0,0,0,0,5.5912,5.5913,0,5.6027,5.6028,5.6029,5.6019,5.6018,5.6016,5.6014,5.6127,5.6132,5.6136,0,0,0,0,0,0,0,0,0,0,0,0,0,5.568,5.5684,5.5912,5.5913,5.5915,5.6027,5.6028,5.603,5.602,5.6018,5.6016,5.6014,5.6126,5.6131,5.6137,0,0,0,0,0,0,0,0,0,0,0,0,0,5.5786,5.5686,5.5912,5.5923,5.5926,5.6026,5.6028,5.603,5.602,5.6018,5.6015,5.6013,5.6124,5.6131,5.6137,5.6232,0,0,5.6159,5.6162,0,0,0,0,0,0,0,0,5.578,5.5795,5.592,5.5923,5.5925,5.6006,5.5988,5.6098,5.6021,5.5984,5.6014,5.6011,5.6089,5.6098,5.6126,5.6238,5.6242,5.6159,5.6163,5.6166,5.6168,0,0,0,0,0,0,0,5.5773,5.579,5.5957,5.5922,5.5925,5.5922,5.5934,5.6009,5.6049,5.5987,5.5987,5.6001,5.609,5.6119,5.6128,5.6244,5.6159,5.6165,5.617,5.6172,5.644,5.6443,0,0,0,0,0,0,5.5763,5.5784,5.5954,5.5961,5.5845,5.5928,5.5942,5.5983,5.6049,5.6056,5.6003,5.6,5.6108,5.612,5.6132,5.6249,5.6166,5.6173,5.6177,5.6437,5.6441,5.6444,0,0,0,0,0,0,5.5758,5.5779,5.5949,5.5872,5.5894,5.5935,5.5981,5.5986,5.6016,5.6061,5.6067,5.6026,5.6107,5.6122,5.6208,5.6252,5.6176,5.6182,5.6434,5.6438,5.6443,5.6482,0,0,0,0,0,0,5.5752,5.5777,5.5815,5.5873,5.5898,5.6025,5.5984,5.5991,5.6028,5.6026,5.6084,5.6091,5.6106,5.6198,5.6215,5.626,5.6188,5.643,5.6436,5.6441,5.6476,5.6487,5.6496,0,0,0,0,0,5.5744,5.582,5.5817,5.5837,5.5946,5.6027,5.6041,5.6058,5.6032,5.607,5.6098,5.6089,5.6244,5.6207,5.6226,5.6274,5.6427,5.6434,5.6441,5.6472,5.6485,5.6495,0,0,0,0,0,0,5.5764,5.5828,5.5825,5.5922,5.597,5.6025,5.6073,5.6071,5.6125,5.612,5.6137,5.6151,5.6237,5.6264,5.6221,5.6369,5.6332,5.6343,5.6349,5.6362,5.6371,5.6363,5.6193,0,0,0,0,0,5.578,5.5842,5.5894,5.5975,5.5999,5.6032,5.6068,5.6077,5.6126,5.6146,5.6181,5.6227,5.6287,5.6325,5.6382,5.648,5.6492,5.6522,5.6532,5.6539,5.6549,5.6603,5.6617,5.6466,5.6466,5.6466,0,0,5.5813,5.5855,5.5893,5.598,5.6017,5.608,5.6049,5.6116,5.6163,5.6155,5.624,5.6266,5.6319,5.6412,5.6454,5.6437,5.6593,5.6548,5.6553,5.6559,5.6611,5.6625,5.6638,5.6471,5.647,5.6469,0,0,5.5906,5.5944,5.6017,5.6056,5.6114,5.6135,5.6153,5.6209,5.6228,5.6312,5.6308,5.6362,5.6464,5.6503,5.6535,5.6643,5.6637,5.6661,5.6711,5.6764,5.6776,5.6786,5.6826,5.684,5.667,5.667,5.667,0,5.594,5.6036,5.6054,5.6123,5.6161,5.6158,5.6232,5.6267,5.634,5.6366,5.6346,5.6474,5.6509,5.6611,5.6638,5.6664,5.6684,5.6655,5.6773,5.6784,5.6794,5.6832,5.6846,5.6673,5.6673,5.6672,5.6672,0,5.6075,5.6142,5.6193,5.6266,5.6309,5.638,5.6407,5.6449,5.6454,5.6478,5.6564,5.6606,5.6672,5.6696,5.6701,5.6799,5.6786,5.6769,5.6732,5.6811,5.6847,5.6861,5.6677,5.6676,5.6675,5.6674,0,0,5.6185,5.6267,5.6286,5.6319,5.6383,5.6435,5.6504,5.6571,5.6606,5.6656,5.6715,5.6801,5.6786,5.6823,5.6832,5.6878,5.6962,5.6855,5.6857,5.6875,5.7073,5.7087,5.7104,5.6958,5.696,5.6963,5.7069,0,5.6286,5.6412,5.643,5.6541,5.6603,5.6601,5.6662,5.6707,5.6731,5.6785,5.681,5.6872,5.6846,5.6869,5.6914,5.6942,5.7002,5.6935,5.7012,5.7015,5.7001,5.7122,5.7137,5.7236,5.7083,5.7086,5.7087,0,5.6421,5.6477,5.6595,5.6651,5.6678,5.6732,5.6795,5.6847,5.6898,5.6911,5.6953,5.6957,5.7028,5.6987,5.7085,5.7039,5.7071,5.709,5.7094,5.7103,5.7057,5.7136,5.7267,5.7283,5.7109,5.7107,5.7106,0,5.6491,5.6595,5.668,5.6708,5.6775,5.6814,5.6843,5.6892,5.693,5.6984,5.7009,5.707,5.7103,5.7149,5.7168,5.7137,5.7266,5.7226,5.7279,5.7279,5.7307,5.7306,5.7448,5.7326,5.7326,5.7325,5.7325,0,5.6603,5.6675,5.6713,5.6765,5.6845,5.6864,5.6943,5.6971,5.7014,5.707,5.7071,5.7123,5.7145,5.7201,5.7215,5.7295,5.7309,5.7322,5.7326,5.7323,5.7322,5.7346,5.734,5.7329,5.7328,5.7328,5.7327,0,5.6695,5.6723,5.6816,5.6872,5.6888,5.6945,5.6993,5.7042,5.7065,5.7137,5.7154,5.719,5.7255,5.7279,5.7357,5.7367,5.746,5.7457,5.7444,5.7445,5.7497,5.7493,5.7661,5.7684,5.7546,5.7547,5.7548,0,5.6766,5.6822,5.6885,5.6924,5.6955,5.7017,5.7057,5.7077,5.7119,5.7181,5.7223,5.7289,5.7343,5.7447,5.7479,5.7539,5.7539,5.7593,5.7548,5.7544,5.7541,5.7538,5.7544,5.7602,5.7604,5.7605,5.7606,0,5.6888,5.6899,5.6958,5.7022,5.7071,5.7121,5.717,5.7202,5.7229,5.7275,5.7344,5.7385,5.7467,5.7532,5.7594,5.7622,5.7619,5.762,5.7635,5.7634,5.7625,5.7632,5.7469,5.7616,5.7615,5.7614,5.7614,5.7613,5.6973,5.7023,5.7076,5.7141,5.7181,5.7227,5.7277,5.7306,5.7364,5.7434,5.7441,5.7515,5.7563,5.7646,5.7678,5.7734,5.7719,5.7742,5.7748,5.7753,5.7758,5.7615,5.7745,5.7745,5.7745,5.7745,5.7744,0,5.7096,5.713,5.719,5.726,5.7312,5.7305,5.7359,5.7402,5.7467,5.7514,5.7567,5.7645,5.7709,5.7745,5.7808,5.7847,5.7847,5.7863,5.7861,5.7868,5.7767,5.7748,5.7862,5.7862,5.7862,5.7862,5.7862,5.7862,5.7167,5.7252,5.7269,5.7373,5.7406,5.748,5.7511,5.7554,5.7591,5.7679,5.7733,5.7757,5.7799,5.7865,5.7922,5.7931,5.7955,5.7973,5.7981,5.7886,5.7874,5.7863,5.7845,5.7978,5.7978,5.8077,5.8077,5.8078]}]]